Location: Del Amo
(33.8464°N, 118.2104°W)
Time: 22:37:09
(UTC+00:00)

Courier 1B - Pass Details

Date: 13 September 2024
Orbit: 962 x 1208 km, 28.3° (Epoch: 02 October)

Event Time Altitude Azimuth Distance (km) Brightness Sun altitude
Rises 04:32:07 0° 269° (W) 4,106 11.6 -30.5°
Reaches altitude 10° 04:35:39 10° 256° (WSW) 3,140 10.6 -31.1°
Maximum altitude 04:41:29 23° 207° (SSW) 2,284 9.3 -32.2°
Enters shadow 04:41:43 23° 204° (SSW) 2,284 9.3 -32.2°
